Home   Weather   Granby   Past weeks
Flag for Canada

Past Weather in Granby, Quebec, Canada — Yesterday and Last 2 Weeks

Now
41 °F

Quite cool.


Feels Like: 35 °F
Forecast: 39 / 30 °F
Wind: 9 mph from North

Location: Frelighsburg

Current Time: Apr 1, 2020 at 2:51:11 pm

Latest Report: Apr 1, 2020 at 2:00 pm


Visibility: N/A

Pressure: 29.86 "Hg

Humidity: 56%

Dew Point: 26 °F

Location of GranbyLocation

Past Weather in Granby — Graph

°F

Granby Temperature Yesterday

Maximum temperature yesterday: 45 °F (at 2:00 pm)
Minimum temperature yesterday: 32 °F (at 11:00 pm)
Average temperature yesterday: 38 °F

High & Low Weather Summary for the Past Weeks

 TemperatureHumidityPressure
High61 °F (Mar 20, 5:00 pm)100% (Mar 20, 5:00 am)30.76 "Hg (Mar 20, 5:00 am)
Low13 °F (Mar 22, 7:00 am)20% (Mar 28, 5:00 pm)29.43 "Hg (Mar 20, 3:00 pm)
Average36 °F66%30.12 "Hg
* Reported Mar 17 1:00 pm — Apr 1 1:00 pm, Granby. Weather by CustomWeather, © 2020

Note: Actual official high and low records may vary slightly from our data, if they occured in-between our weather recording intervals... More about our weather records

Granby Weather History for the Previous 24 Hours

Scroll right to see more
 ConditionsComfort  
Time TempWeatherWind HumidityBarometerVisibility
1:00 pm
Wed, Apr 1
41 °FQuite cool.9 mph53%29.87 "HgN/A
12:00 pm42 °FQuite cool.10 mph48%29.88 "HgN/A
11:00 am41 °FQuite cool.6 mph50%29.89 "HgN/A
10:00 am37 °FChilly.5 mph57%29.90 "HgN/A
9:00 am34 °FChilly.3 mph71%29.92 "HgN/A
8:00 am32 °FChilly.1 mph72%29.91 "HgN/A
7:00 am28 °FChilly.2 mph83%29.91 "HgN/A
6:00 am27 °FChilly.2 mph82%29.91 "HgN/A
5:00 am28 °FChilly.2 mph82%29.92 "HgN/A
4:00 am29 °FChilly.1 mph78%29.92 "HgN/A
3:00 am30 °FChilly.1 mph75%29.93 "HgN/A
2:00 am30 °FChilly.No wind74%29.94 "HgN/A
1:00 am31 °FChilly.1 mph71%29.96 "HgN/A
12:00 am32 °FChilly.5 mph64%29.97 "HgN/A
11:00 pm
Tue, Mar 31
32 °FChilly.3 mph49%29.99 "HgN/A
10:00 pm34 °FChilly.6 mph38%30.01 "HgN/A
9:00 pm34 °FChilly.5 mph36%30.02 "HgN/A
8:00 pm37 °FChilly.5 mph33%30.03 "HgN/A
7:00 pm38 °FChilly.10 mph36%30.02 "HgN/A
6:00 pm43 °FQuite cool.12 mph33%30.03 "HgN/A
5:00 pm44 °FQuite cool.10 mph31%30.01 "HgN/A
4:00 pm45 °FQuite cool.9 mph28%30.01 "HgN/A
3:00 pm44 °FQuite cool.10 mph28%30.02 "HgN/A
2:00 pm45 °FCool.9 mph34%30.04 "HgN/A
Weather by CustomWeather, © 2020

See weather overview

Advertising